Change the Weather History Date:

Monday, December 26, 2011

  Actual Average Record
Temperature  
Mean Temperature 38 °F 43 °F  
Max Temperature 60 °F 57 °F 72 °F (1980)
Min Temperature 16 °F 29 °F 11 °F (1962)
Degree Days  
Heating Degree Days 27    
Month to date heating degree days 653  
Since 1 July heating degree days 1252  
Cooling Degree Days 0    
Month to date cooling degree days 0  
Year to date cooling degree days 1754  
Moisture  
Dew Point 11 °F    
Average Humidity 42    
Maximum Humidity 73    
Minimum Humidity 10    
Precipitation  
Precipitation 0.00 in 0.05 in 0.81 in (1977)
Month to date precipitation 0.36 0.90  
Year to date precipitation 5.00 7.13  
Since 1 July precipitation 1.35 2.22  
Snow  
Snow 0.00 in - 0.00 in ()
Month to date snowfall 0.0  
Since 1 July snowfall 0.0  
Snow Depth 0.00 in    
Sea Level Pressure  
Sea Level Pressure 30.33 in    
Wind  
Wind Speed 2 mph (WNW)    
Max Wind Speed 8 mph    
Max Gust Speed -    
Visibility 10 miles    
Events      
T = Trace of Precipitation, MM = Missing Value Source: NWS Daily Summary

Daily Weather History Graph

Daily Weather History Graph

Search for Another Location

Airport or City:

Trip Planner

Search our weather history database for the weather conditions in past years. The results will help you decide how hot, cold, wet, or windy it might be!

Date:

Astronomy

Dec. 26, 2011 Rise Set
Actual Time 6:58 AM PST 4:48 PM PST
Civil Twilight 6:30 AM PST 5:16 PM PST
Nautical Twilight 5:58 AM PST 5:48 PM PST
Astronomical Twilight 5:28 AM PST 6:18 PM PST
Moon 8:25 AM PST (12/26) 7:16 PM PST (12/26)
Length of Visible Light 10h 46m
Length of Day
9h 50m
Waxing Crescent, 5% of the Moon is Illuminated
Dec 26
Waxing Crescent
Dec 31
First Quarter
Jan 8
Full
Jan 16
Last Quarter
Jan 22
New

Hourly Weather History & Observations

Time (PST) Temp. Windchill Dew Point Humidity Pressure Visibility Wind Dir Wind Speed Gust Speed Precip Events Conditions
12:56 AM 25.0 °F - 12.0 °F 58% 30.32 in 10.0 mi Calm Calm - N/A   Clear
1:56 AM 21.9 °F 15.7 °F 12.0 °F 66% 30.33 in 10.0 mi WNW 4.6 mph - N/A   Clear
2:56 AM 19.9 °F 13.4 °F 10.9 °F 68% 30.33 in 10.0 mi WNW 4.6 mph - N/A   Clear
3:56 AM 21.9 °F - 10.9 °F 63% 30.32 in 10.0 mi Calm Calm - N/A   Clear
4:56 AM 23.0 °F - 12.0 °F 63% 30.32 in 10.0 mi Calm Calm - N/A   Clear
5:56 AM 16.0 °F - 9.0 °F 74% 30.36 in 10.0 mi Calm Calm - N/A   Clear
6:56 AM 19.0 °F - 10.0 °F 68% 30.38 in 10.0 mi Calm Calm - N/A   Clear
7:56 AM 26.1 °F - 14.0 °F 60% 30.39 in 10.0 mi Calm Calm - N/A   Clear
8:56 AM 30.0 °F 26.5 °F 15.1 °F 54% 30.40 in 10.0 mi NW 3.5 mph - N/A   Clear
9:56 AM 39.9 °F 37.8 °F 15.1 °F 36% 30.40 in 10.0 mi WSW 3.5 mph - N/A   Clear
10:56 AM 46.0 °F - 14.0 °F 28% 30.38 in 10.0 mi Calm Calm - N/A   Clear
11:56 AM 52.0 °F - 8.1 °F 17% 30.33 in 10.0 mi Calm Calm - N/A   Clear
12:56 PM 55.9 °F - 6.1 °F 14% 30.29 in 10.0 mi Calm Calm - N/A   Clear
1:56 PM 59.0 °F - 7.0 °F 13% 30.27 in 10.0 mi SE 3.5 mph - N/A   Clear
2:56 PM 60.1 °F - 3.9 °F 11% 30.27 in 10.0 mi Calm Calm - N/A   Clear
3:56 PM 60.1 °F - 6.1 °F 12% 30.27 in 10.0 mi Calm Calm - N/A   Clear
4:56 PM 52.0 °F - 10.0 °F 19% 30.28 in 10.0 mi NE 4.6 mph - N/A   Clear
5:56 PM 44.1 °F 41.5 °F 12.0 °F 27% 30.32 in 10.0 mi WSW 4.6 mph - N/A   Clear
6:56 PM 36.0 °F 32.1 °F 12.0 °F 37% 30.33 in 10.0 mi WNW 4.6 mph - N/A   Clear
7:56 PM 35.1 °F - 12.0 °F 39% 30.33 in 10.0 mi Calm Calm - N/A   Clear
8:56 PM 32.0 °F 28.7 °F 15.1 °F 50% 30.34 in 10.0 mi WSW 3.5 mph - N/A   Clear
9:56 PM 30.9 °F 27.5 °F 14.0 °F 50% 30.33 in 10.0 mi NW 3.5 mph - N/A   Clear
10:56 PM 28.0 °F 22.8 °F 14.0 °F 56% 30.32 in 10.0 mi West 4.6 mph - N/A   Clear
11:56 PM 27.0 °F 20.5 °F 14.0 °F 58% 30.31 in 10.0 mi WNW 5.8 mph - N/A   Clear